GAOFEN 1-04

导读 | 豆包AI

高分一号04星(GAOFEN 1-04)是中国高分辨率对地观测系统的光学遥感卫星,于2018年3月31日以一箭三星方式成功发射,属于国家民用空间基础设施首批业务化应用卫星。它具备2米高分辨率成像能力,可提供大幅宽遥感数据,广泛服务于国土资源监测、农业估产、灾害应急、环境保护等多个领域,是我国自主研制的“太空天眼”,持续为国民经济建设提供稳定的对地观测数据支持。

Basic Information
目录编号:
43262
目录名称:
GAOFEN 1-04
国际标识:
2018-031D
轨道中心:
EARTH
卫星名称:
GAOFEN 1-04
卫星全名:
--
卫星状态:
在轨 (已飞行2905 天)
发射日期:
2018-03-31 UTC
国别 :
中国 (CN)
星等 :
--
Orbit Information
数据来源 国际轨道数据 AOE轨道数据
星历时间 2026-03-14T07:11:54+0800
5小时前
查看轨道信息
2026-03-11T11:00:00+0800
3天前
查看轨道信息
半长轴 7018.706km 7018.739km
偏心率 0.0001856 0.0001825
轨道倾角 98.064° 98.066°
近地点辐角 75.931° 61.672°
升交点赤经 135.760° 132.924°
平近点角 284.210° 323.953°
近地点 639.266km 639.321km
远地点 641.872km 641.883km
周期 97.532分钟 97.532分钟
每日圈数 14.764448 14.764343
Detailed Information
使用方式:
暂无
2D Orbit Map
3D Orbit Map
Orbit Altitude Analysis Chart
Orbit Inclination Analysis Chart
Orbit Comprehensive Analysis Chart
View Comprehensive Chart